Overview Statistics Trail Chart Weather Telemetry Raw packets
 

This is the latest recevied weather packets stored in our database for station/object KR0L-13. If no packets are shown the sender has not sent any weather packets the latest 10 day(s).

<< 1 2 3 4 5 6 7 >>
Time Temp. Humidity Pressure Rain* Wind** Luminosity Snow
1788621322 33.89° C 48% 1015 hPa 0 mm - - -
1788620722 33.33° C 49% 1014.8 hPa 0 mm - - -
1788620122 33.33° C 50% 1014.7 hPa 0 mm - - -
1788619522 32.78° C 51% 1014.6 hPa 0 mm - - -
1788618922 32.22° C 53% 1014.5 hPa 0 mm - - -
1788618321 31.11° C 54% 1014.7 hPa 0 mm - - -
1788617721 31.11° C 55% 1014.7 hPa 0 mm - - -
1788617122 30.56° C 56% 1014.5 hPa 0 mm - - -
1788616522 30° C 59% 1014.5 hPa 0 mm - - -
1788615921 29.44° C 60% 1014.5 hPa 0 mm - - -
1788615323 28.89° C 62% 1014.3 hPa 0 mm - - -
1788614721 28.33° C 63% 1014.3 hPa 0 mm - - -
1788614121 27.78° C 64% 1014.2 hPa 0 mm - - -
1788613521 27.78° C 65% 1014 hPa 0 mm - - -
1788612921 27.78° C 64% 1014 hPa 0 mm - - -
1788612321 27.78° C 65% 1014 hPa 0 mm - - -
1788611721 27.22° C 66% 1013.9 hPa 0 mm - - -
1788611121 27.22° C 66% 1013.9 hPa 0 mm - - -
1788610521 26.67° C 67% 1013.8 hPa 0 mm - - -
1788609921 26.67° C 67% 1013.8 hPa 0 mm - - -
1788609334 26.67° C 67% 1013.9 hPa 0 mm - - -
1788608721 26.67° C 66% 1013.8 hPa 0 mm - - -
1788608121 27.22° C 66% 1013.8 hPa 0 mm - - -
1788607521 27.22° C 65% 1013.8 hPa 0 mm - - -
1788606921 27.22° C 65% 1013.9 hPa 0 mm - - -

* Rain latest hour (hover to see other rain measurements)
** Current wind speed in m/s (hover to see current wind gust speed)